When you browse on this site, cookies collect data to enhance your experience and personalize the content and advertising you see.
Visit our Privacy Policy to learn more. By continuing to use the site, you agree to this use of cookies and data.
  • en France
  • Liste des pays
  • À 7 jours
  • Température de l'eau
  • Carte météo
  • Widgets météo
  • user-avatar
    Se connecter

    Météo par heure à Homuty

    Ce jour, 14 Octobre, Lundi

    Heure Température Précipitation Vent Pression Humidité
    00:00 +12°C° 0.1 mm 3 m/s 750 mmHg 93%
    01:00 +12°C° 0.1 mm 3 m/s 750 mmHg 94%
    02:00 +13°C° 0 mm 2 m/s 750 mmHg 98%
    03:00 +13°C° 0 mm 2 m/s 750 mmHg 97%
    04:00 +13°C° 0 mm 2 m/s 750 mmHg 96%
    05:00 +13°C° 0 mm 2 m/s 750 mmHg 96%
    06:00 +13°C° 0 mm 2 m/s 750 mmHg 95%
    07:00 +14°C° 0 mm 2 m/s 750 mmHg 93%
    08:00 +14°C° 0 mm 2 m/s 751 mmHg 92%
    09:00 +16°C° 0 mm 3 m/s 750 mmHg 87%
    10:00 +17°C° 0 mm 4 m/s 750 mmHg 82%
    11:00 +17°C° 0 mm 5 m/s 750 mmHg 78%
    12:00 +19°C° 0 mm 5 m/s 750 mmHg 75%
    13:00 +20°C° 0 mm 5 m/s 749 mmHg 72%
    14:00 +21°C° 0 mm 5 m/s 749 mmHg 69%
    15:00 +20°C° 0 mm 5 m/s 748 mmHg 71%
    16:00 +19°C° 0 mm 5 m/s 748 mmHg 73%
    17:00 +17°C° 0 mm 6 m/s 748 mmHg 74%
    18:00 +16°C° 0 mm 6 m/s 748 mmHg 73%
    19:00 +16°C° 0 mm 6 m/s 748 mmHg 72%
    20:00 +15°C° 0 mm 6 m/s 747 mmHg 70%
    21:00 +15°C° 0 mm 6 m/s 747 mmHg 70%
    22:00 +15°C° 0 mm 6 m/s 747 mmHg 69%
    23:00 +14°C° 0 mm 6 m/s 747 mmHg 68%

    Demain, 15 Octobre, Mardi

    Heure Température Précipitation Vent Pression Humidité
    00:00 +14°C° 0 mm 6 m/s 747 mmHg 70%
    01:00 +13°C° 0 mm 5 m/s 747 mmHg 72%
    02:00 +13°C° 0 mm 5 m/s 747 mmHg 74%
    03:00 +12°C° 0 mm 5 m/s 747 mmHg 79%
    04:00 +12°C° 0 mm 4 m/s 747 mmHg 84%
    05:00 +11°C° 0 mm 4 m/s 747 mmHg 88%
    06:00 +12°C° 0 mm 4 m/s 748 mmHg 88%
    07:00 +12°C° 0 mm 4 m/s 748 mmHg 88%
    08:00 +13°C° 0 mm 5 m/s 749 mmHg 87%
    09:00 +14°C° 0 mm 4 m/s 749 mmHg 82%
    10:00 +14°C° 0 mm 4 m/s 749 mmHg 76%
    11:00 +16°C° 0 mm 3 m/s 749 mmHg 71%
    12:00 +16°C° 0 mm 3 m/s 750 mmHg 69%
    13:00 +16°C° 0 mm 3 m/s 750 mmHg 68%
    14:00 +16°C° 0 mm 3 m/s 750 mmHg 67%
    15:00 +14°C° 0 mm 3 m/s 751 mmHg 71%
    16:00 +14°C° 0 mm 2 m/s 751 mmHg 76%
    17:00 +13°C° 0 mm 2 m/s 751 mmHg 80%
    18:00 +12°C° 0 mm 2 m/s 751 mmHg 82%
    19:00 +12°C° 0 mm 2 m/s 752 mmHg 84%
    20:00 +10°C° 0 mm 2 m/s 752 mmHg 86%
    21:00 +10°C° 0 mm 2 m/s 753 mmHg 88%
    22:00 +9°C° 0 mm 2 m/s 753 mmHg 89%
    23:00 +8°C° 0 mm 2 m/s 753 mmHg 91%

    Après-demain, 16 Octobre, Mercredi

    Heure Température Précipitation Vent Pression Humidité
    00:00 +8°C° 0 mm 3 m/s 753 mmHg 91%
    01:00 +8°C° 0 mm 3 m/s 754 mmHg 91%
    02:00 +8°C° 0 mm 3 m/s 754 mmHg 91%
    03:00 +7°C° 0 mm 3 m/s 754 mmHg 91%
    04:00 +7°C° 0 mm 3 m/s 754 mmHg 91%
    05:00 +7°C° 0 mm 3 m/s 754 mmHg 91%
    06:00 +7°C° 0 mm 3 m/s 754 mmHg 89%
    07:00 +7°C° 0 mm 4 m/s 754 mmHg 86%
    08:00 +7°C° 0 mm 4 m/s 754 mmHg 84%
    09:00 +8°C° 0 mm 4 m/s 754 mmHg 81%
    10:00 +11°C° 0 mm 4 m/s 754 mmHg 78%
    11:00 +12°C° 0 mm 4 m/s 754 mmHg 75%
    12:00 +13°C° 0 mm 4 m/s 754 mmHg 73%
    13:00 +13°C° 0 mm 4 m/s 753 mmHg 72%
    14:00 +14°C° 0 mm 5 m/s 753 mmHg 71%
    15:00 +13°C° 0 mm 4 m/s 753 mmHg 75%
    16:00 +12°C° 0 mm 4 m/s 752 mmHg 78%
    17:00 +11°C° 0 mm 4 m/s 752 mmHg 82%
    18:00 +11°C° 0 mm 4 m/s 752 mmHg 83%
    19:00 +10°C° 0 mm 5 m/s 752 mmHg 83%
    20:00 +10°C° 0 mm 5 m/s 752 mmHg 83%
    21:00 +9°C° 0 mm 5 m/s 752 mmHg 83%
    22:00 +9°C° 0 mm 5 m/s 751 mmHg 83%
    23:00 +9°C° 0 mm 5 m/s 751 mmHg 83%

    17 Octobre, Jeudi

    Heure Température Précipitation Vent Pression Humidité
    00:00 +9°C° 0 mm 5 m/s 751 mmHg 84%
    01:00 +9°C° 0 mm 5 m/s 751 mmHg 85%
    02:00 +8°C° 0 mm 4 m/s 751 mmHg 86%
    03:00 +8°C° 0 mm 4 m/s 750 mmHg 87%
    04:00 +8°C° 0 mm 4 m/s 750 mmHg 88%
    05:00 +8°C° 0 mm 5 m/s 750 mmHg 90%
    06:00 +9°C° 0 mm 5 m/s 750 mmHg 88%
    07:00 +9°C° 0 mm 5 m/s 750 mmHg 87%
    08:00 +10°C° 0 mm 5 m/s 749 mmHg 86%
    09:00 +12°C° 0 mm 5 m/s 749 mmHg 81%
    10:00 +14°C° 0 mm 5 m/s 749 mmHg 77%
    11:00 +15°C° 0 mm 4 m/s 749 mmHg 72%
    12:00 +17°C° 0 mm 4 m/s 749 mmHg 69%
    13:00 +18°C° 0 mm 4 m/s 749 mmHg 66%
    14:00 +18°C° 0 mm 4 m/s 748 mmHg 62%
    15:00 +17°C° 0 mm 4 m/s 748 mmHg 67%
    16:00 +16°C° 0 mm 3 m/s 748 mmHg 72%
    17:00 +14°C° 0 mm 3 m/s 748 mmHg 77%
    18:00 +14°C° 0 mm 3 m/s 748 mmHg 77%
    19:00 +13°C° 0 mm 3 m/s 748 mmHg 77%
    20:00 +13°C° 0 mm 3 m/s 748 mmHg 77%
    21:00 +13°C° 0 mm 3 m/s 748 mmHg 76%
    22:00 +13°C° 0 mm 3 m/s 748 mmHg 75%
    23:00 +13°C° 0 mm 3 m/s 747 mmHg 75%

    18 Octobre, Vendredi

    Heure Température Précipitation Vent Pression Humidité
    00:00 +13°C° 0 mm 3 m/s 747 mmHg 78%
    01:00 +12°C° 0 mm 3 m/s 747 mmHg 82%
    02:00 +12°C° 0 mm 3 m/s 747 mmHg 85%
    03:00 +11°C° 0 mm 3 m/s 747 mmHg 88%
    04:00 +10°C° 0 mm 3 m/s 747 mmHg 90%
    05:00 +10°C° 0 mm 3 m/s 747 mmHg 93%
    06:00 +10°C° 0 mm 3 m/s 748 mmHg 90%
    07:00 +11°C° 0 mm 3 m/s 748 mmHg 88%
    08:00 +11°C° 0 mm 3 m/s 748 mmHg 85%
    09:00 +12°C° 0 mm 3 m/s 748 mmHg 81%
    10:00 +13°C° 0 mm 3 m/s 749 mmHg 76%
    11:00 +14°C° 0 mm 3 m/s 749 mmHg 71%
    12:00 +16°C° 0 mm 3 m/s 749 mmHg 69%
    13:00 +16°C° 0 mm 3 m/s 750 mmHg 68%
    14:00 +16°C° 0 mm 3 m/s 750 mmHg 67%
    15:00 +14°C° 0 mm 3 m/s 750 mmHg 73%
    16:00 +13°C° 0 mm 3 m/s 750 mmHg 78%
    17:00 +12°C° 0 mm 3 m/s 750 mmHg 84%
    18:00 +11°C° 0 mm 3 m/s 751 mmHg 86%
    19:00 +10°C° 0 mm 3 m/s 751 mmHg 87%
    20:00 +10°C° 0 mm 3 m/s 752 mmHg 89%
    21:00 +9°C° 0 mm 3 m/s 752 mmHg 88%
    22:00 +9°C° 0 mm 3 m/s 752 mmHg 87%
    23:00 +9°C° 0 mm 3 m/s 752 mmHg 87%

    19 Octobre, Samedi

    Heure Température Précipitation Vent Pression Humidité
    00:00 +9°C° 0 mm 3 m/s 752 mmHg 86%
    01:00 +9°C° 0 mm 3 m/s 753 mmHg 85%
    02:00 +9°C° 0 mm 2 m/s 753 mmHg 84%
    03:00 +9°C° 0 mm 2 m/s 753 mmHg 84%
    04:00 +8°C° 0 mm 2 m/s 753 mmHg 84%
    05:00 +8°C° 0 mm 2 m/s 753 mmHg 84%
    06:00 +8°C° 0 mm 2 m/s 754 mmHg 83%
    07:00 +8°C° 0 mm 2 m/s 754 mmHg 83%
    08:00 +9°C° 0 mm 1 m/s 754 mmHg 83%
    09:00 +10°C° 0 mm 1 m/s 754 mmHg 81%
    10:00 +10°C° 0 mm 1 m/s 755 mmHg 80%
    11:00 +11°C° 0 mm 1 m/s 755 mmHg 78%
    12:00 +11°C° 0 mm 1 m/s 755 mmHg 76%
    13:00 +11°C° 0 mm 1 m/s 755 mmHg 74%
    14:00 +12°C° 0 mm 1 m/s 755 mmHg 72%
    15:00 +11°C° 0 mm 1 m/s 755 mmHg 76%
    16:00 +10°C° 0 mm 1 m/s 755 mmHg 80%
    17:00 +9°C° 0 mm 1 m/s 755 mmHg 84%
    18:00 +9°C° 0 mm 1 m/s 755 mmHg 85%
    19:00 +7°C° 0 mm 2 m/s 755 mmHg 87%
    20:00 +7°C° 0 mm 2 m/s 756 mmHg 88%
    21:00 +7°C° 0 mm 1 m/s 756 mmHg 89%
    22:00 +7°C° 0 mm 1 m/s 756 mmHg 90%
    23:00 +7°C° 0 mm 1 m/s 756 mmHg 91%
    Voir plus